Погода в Ашхабаде

Туркменистан     37°56′06″N   58°22′44″E
темп.,
°C
ветер,
м/с
пор.,
м/с
влажн.,
%
обл.,
%
осадки,
мм/ч
давл.,
гПа
погр.,
м
25 января, вт
вт2523:00+6вюв22350 0.0 102024
02:00+5в22370 0.0 102118
05:00+5в22400 0.0 102112
08:00+4в22450 0.0 102315
11:00+7в33400 0.0 1023200
14:00+11в33290 0.0 1022605
17:00+12в44265 0.0 1021697
20:00+8в46360 0.0 1023183
26 января, ср
ср2623:00+7вюв36410 0.0 1024132
02:00+5вюв35440 0.0 1023109
05:00+5вюв344673 0.0 102379
08:00+4в3546100 0.0 102495
11:00+7в4636100 0.0 1024292
14:00+12в6724100 0.0 1021732
17:00+13в710239 0.0 1019725
20:00+9в611300 0.0 1018357
27 января, чт
чт2723:00+8в510320 0.0 1017235
02:00+6в35380 0.0 1016106
05:00+5в33400 0.0 101553
08:00+6в324060 0.0 101425
11:00+9в22301 0.0 1013111
14:00+14св11220 0.0 1010322
17:00+15св0120100 0.0 1008233
20:00+13ююз1224100 0.1 100813
28 января, пт
пт2823:00+11сз26636 0.2 1007157
02:00+10зсз117814 0.0 100610
05:00+9зсз7114168 0.0 1008403
08:00+6сз587852 0.0 1012497
11:00+8зсз6868100 0.0 1014646
14:00+11сз564695 0.0 10141156
17:00+11ссз884951 0.0 1015749
20:00+10зсз594111 0.0 1019397
29 января, сб
сб2923:00+7ссз47555 0.0 1022292
02:00+5с12694 0.0 1024222
05:00+4в22725 0.0 1026155
08:00+3вюв33776 0.0 1027107
11:00+6вюв45625 0.0 1028687
14:00+9в66465 0.0 10251061
17:00+11в66425 0.0 10241211
20:00+8всв48515 0.0 1025329